Location: Banksville Park
(38.5557°N, 75.1182°W)
Time: 19:02:21
(UTC+00:00)

SAR-Lupe-1 - Pass Details

Date: 17 January 2021
Orbit: 482 x 484 km, 98.2° (Epoch: 05 March)

Event Time Altitude Azimuth Distance (km) Brightness Sun altitude
Exits shadow 23:06:26 11° 31° (NNE) 1,605 6.3 -11.8°
Maximum altitude 23:09:37 36° 99° (E) 776 4.6 -12.4°
Drops below altitude 10° 23:12:55 10° 168° (SSE) 1,654 6.8 -13.0°
Sets 23:15:04 0° 177° (S) 2,529 7.9 -13.4°
